Theta_e
290 288 285 285 286 285 285 284 286 285 283 281 279 280 280 279 281 282 282 283 283 283 283 285 284 285 287 289 290 287 283 283 283 283 283 284 283 283 283 283 283 283 284 284 283 283 282 282 282 282 281 281 281 281 281 282 282 282 283 284 282 283 283 284 283 282 282 281 281 281 281 280 280 281 283 282 281 282 281 282 282 281 281 281 280 281
290 287 285 287 287 285 285 282 280 281 281 282 282 280 281 280 281 285 284 283 281 284 280 280 281 283 285 288 290 287 283 283 283 283 283 284 284 284 283 283 283 284 283 283 282 282 281 282 282 281 281 282 281 281 280 281 282 282 281 282 282 282 282 282 282 283 283 281 281 280 280 280 280 280 280 280 281 281 283 282 281 281 280 280 280 280
285 286 289 285 283 281 278 280 281 283 282 281 282 280 280 282 280 283 282 281 282 282 282 282 282 285 287 289 291 290 288 289 287 286 287 285 284 284 284 284 283 283 282 282 283 282 281 282 281 281 281 281 282 282 282 281 281 281 281 282 282 282 282 282 283 283 281 281 282 281 280 280 280 280 281 281 281 282 282 280 280 281 280 280 279 279
288 285 287 285 282 282 281 279 281 281 281 280 280 281 282 282 282 282 281 281 282 282 282 282 283 284 287 288 289 291 290 289 288 287 287 287 286 285 285 284 284 283 283 282 282 281 281 281 281 280 280 281 281 282 281 280 281 281 283 281 281 282 282 282 282 286 282 282 282 282 281 281 280 280 282 282 281 280 279 279 279 279 280 279 279 279
289 288 282 281 282 285 283 282 282 281 282 280 281 280 281 282 282 282 282 280 281 280 280 281 284 287 286 285 286 284 281 285 287 286 286 285 286 286 285 285 285 284 283 283 282 281 280 280 280 280 281 280 280 281 281 281 281 282 282 282 281 281 281 281 284 284 282 283 281 280 280 281 280 280 280 278 278 279 279 280 278 278 279 279 279 278
287 286 281 284 283 283 284 282 282 283 280 276 279 284 284 282 282 280 279 281 279 278 279 281 281 279 276 281 284 286 283 284 283 285 286 286 285 284 284 285 284 285 284 284 282 281 281 281 280 279 280 280 280 281 281 281 282 281 281 281 281 281 281 281 281 281 282 282 280 278 278 277 277 277 277 277 277 278 278 278 279 279 278 278 278 278
288 283 284 285 283 283 283 282 279 284 280 281 283 281 282 281 281 281 280 282 277 275 280 279 278 280 279 284 283 284 283 286 285 283 286 285 284 284 285 285 284 283 283 283 282 281 280 280 279 279 279 280 280 281 281 281 281 281 281 280 280 281 281 281 281 281 283 279 279 278 278 277 277 276 277 277 278 278 278 278 278 278 278 278 278 278
283 283 282 282 282 282 282 281 281 284 282 280 280 279 281 281 282 280 280 281 280 278 279 280 281 278 280 283 288 289 286 286 286 287 287 286 284 284 285 285 284 283 283 283 282 281 281 280 280 280 280 280 281 282 280 281 281 280 281 280 280 280 283 281 281 280 281 280 279 278 277 279 278 277 277 278 277 278 279 278 278 277 277 277 277 277
283 282 283 283 283 281 282 281 281 284 283 280 281 280 280 281 280 278 281 278 277 276 278 276 279 276 276 275 277 280 282 284 285 286 287 287 285 284 285 284 284 283 283 283 282 281 280 280 280 281 280 280 281 280 281 281 281 281 280 280 280 280 280 280 279 281 280 281 280 278 278 277 278 278 278 279 279 278 277 276 277 276 277 277 277 277
285 284 283 284 283 283 281 279 280 285 284 283 280 280 279 279 279 278 276 280 275 273 279 275 279 274 280 279 280 278 280 281 283 286 287 287 286 284 284 283 283 282 282 282 282 281 280 280 280 281 281 280 280 280 282 281 280 280 279 280 280 279 279 279 279 279 278 278 279 277 277 276 277 277 277 277 276 276 276 276 276 276 276 276 276 276
285 286 285 284 284 283 280 280 280 282 282 282 281 281 280 278 276 275 274 273 271 273 280 280 278 279 276 279 279 281 281 283 284 283 284 284 284 282 282 283 282 282 281 281 281 281 280 280 280 280 280 280 280 279 279 280 280 279 279 278 278 278 278 279 278 278 278 278 277 277 277 276 276 276 276 276 276 276 275 275 275 275 275 276 275 276
283 284 285 283 283 282 281 282 281 280 279 281 281 279 282 281 275 270 265 269 270 274 275 275 277 280 273 277 279 282 280 280 285 284 284 285 285 284 281 281 282 281 281 280 280 279 279 279 279 278 279 279 279 279 278 279 279 279 278 278 278 278 278 277 278 278 277 277 277 277 276 276 276 276 276 275 275 275 274 275 274 275 275 275 275 275
283 284 282 285 285 285 282 282 281 280 281 281 279 276 275 271 270 272 266 270 268 274 274 272 275 275 277 283 280 281 284 283 281 285 287 287 287 282 280 281 281 281 279 279 279 279 279 279 279 278 279 278 278 279 279 279 279 278 278 278 278 277 277 277 277 277 277 277 276 276 276 276 277 276 276 275 275 275 274 274 274 274 274 274 274 274
282 280 282 285 285 285 285 283 278 280 280 280 281 275 272 270 269 268 267 263 268 272 274 276 275 276 282 283 286 287 289 288 286 283 283 284 285 282 280 280 280 280 279 279 279 279 279 280 279 279 279 279 279 278 279 278 279 278 278 277 277 277 277 277 277 276 276 276 276 276 276 276 276 275 275 275 274 275 274 275 274 274 274 273 273 274
275 281 281 284 283 284 287 289 285 279 279 281 280 282 279 272 267 267 265 271 276 274 273 274 273 273 274 278 280 285 288 287 283 279 280 279 278 279 279 279 279 279 278 279 279 279 280 280 279 279 279 279 279 278 278 278 278 277 277 277 277 276 276 276 276 276 276 276 276 275 275 275 275 275 275 275 275 275 274 274 273 273 273 273 273 274
281 282 280 283 281 284 285 283 281 281 281 279 278 280 277 279 277 276 271 267 269 272 274 269 276 275 281 280 281 277 277 279 278 279 278 279 279 279 279 279 279 279 278 279 279 279 279 279 279 279 279 279 278 278 278 277 277 277 277 277 276 276 276 276 277 276 275 275 275 275 274 274 275 276 275 275 275 274 274 273 273 273 273 273 273 274
281 278 282 282 281 283 282 281 284 283 281 280 281 278 280 281 282 275 271 269 268 265 276 268 275 280 279 285 284 283 279 281 278 278 278 278 278 277 279 279 278 278 278 278 279 279 279 278 278 279 278 278 278 278 278 278 278 278 277 277 276 275 275 275 276 275 275 275 274 274 274 274 273 273 273 273 272 273 273 273 273 273 273 273 273 273
283 283 282 282 284 282 279 280 281 278 283 280 274 279 281 281 279 278 272 268 263 267 274 269 276 279 278 279 278 279 279 279 280 280 279 276 276 277 279 279 279 278 278 279 279 279 279 279 278 278 279 278 278 278 277 278 277 277 277 276 275 276 275 275 275 274 274 274 274 273 273 273 273 273 272 272 272 272 272 272 272 272 272 272 273 273
286 283 283 279 280 282 280 282 284 282 281 280 278 281 281 275 275 274 267 269 266 266 268 273 275 278 281 281 282 278 279 280 280 281 278 277 276 277 279 279 278 277 278 278 278 278 278 278 278 278 278 278 278 278 278 277 277 276 276 275 275 275 275 275 275 274 274 274 274 274 273 272 272 272 272 272 272 272 271 271 271 271 272 272 272 273
287 283 282 280 280 281 281 282 279 279 281 280 281 281 280 278 271 271 276 269 270 269 266 275 277 278 281 281 282 285 279 280 281 279 279 279 279 279 279 279 278 277 278 278 278 278 279 278 278 278 278 278 277 277 277 276 276 275 275 276 275 275 275 274 273 273 273 273 273 272 272 272 272 272 271 271 271 270 270 270 270 271 271 271 272 272
284 283 282 281 279 281 279 281 282 282 278 277 279 276 276 275 277 276 274 272 271 267 269 268 273 279 283 285 285 286 283 281 281 282 281 280 279 279 280 280 279 278 278 278 279 279 278 278 278 278 278 278 277 277 276 276 276 275 275 274 275 274 273 273 273 272 272 272 271 271 270 270 270 270 270 270 270 269 269 270 271 270 271 271 271 271
283 281 283 280 277 278 281 281 282 283 285 282 282 280 281 276 273 270 274 273 268 273 269 267 274 281 286 286 286 284 284 281 281 284 285 281 280 279 279 279 279 278 278 279 279 278 278 278 277 277 277 276 276 276 276 276 275 274 274 274 273 273 272 271 271 270 270 270 270 270 269 269 269 269 269 268 268 269 269 269 269 270 270 270 270 271
285 280 281 279 282 282 280 281 276 278 279 281 281 280 283 282 278 273 274 275 267 274 271 270 268 278 285 283 282 283 282 282 283 283 283 281 279 279 279 279 279 279 279 279 278 278 278 278 278 277 277 276 276 276 275 274 274 274 273 272 272 271 271 271 270 270 270 269 269 269 268 268 268 267 267 267 268 268 268 268 269 270 269 269 270 270
290 279 277 283 282 276 279 278 278 278 281 281 281 278 280 280 282 282 281 276 273 270 272 269 271 279 285 278 281 280 278 279 277 278 280 280 279 279 278 278 278 278 278 278 278 277 278 277 277 277 276 276 275 275 275 274 274 273 272 272 271 271 270 270 270 269 268 268 267 267 267 267 267 266 266 266 267 267 267 268 268 269 269 269 269 269
281 282 281 277 273 277 275 277 278 279 278 278 280 281 281 283 282 277 275 274 273 277 273 275 272 279 283 275 277 276 278 278 278 277 278 279 279 279 278 278 278 278 277 276 277 277 277 277 277 277 276 276 276 275 274 274 273 272 272 271 271 270 270 270 269 268 267 267 266 266 266 266 266 266 266 266 266 266 267 267 268 268 268 268 268 268
286 282 281 275 275 273 273 272 275 274 278 278 276 277 280 281 281 277 277 275 274 278 275 276 278 284 289 283 277 278 276 278 278 277 277 278 279 279 278 277 277 277 277 277 277 276 276 277 277 276 276 276 275 275 274 273 273 272 271 270 270 269 269 268 267 267 266 266 266 266 265 265 265 265 265 266 266 266 266 267 267 267 267 267 266 266
280 280 284 284 281 279 281 282 280 279 276 276 278 279 280 280 282 282 281 274 275 279 278 279 281 282 284 286 286 283 281 279 284 281 277 278 277 277 277 277 277 277 277 277 277 277 277 276 276 276 275 275 275 274 273 272 271 269 269 268 268 267 267 267 266 266 266 265 265 265 265 265 265 265 265 265 266 266 266 266 266 265 265 265 265 264
278 281 283 284 285 285 285 285 281 282 279 280 280 279 280 280 279 279 278 277 282 275 275 282 283 281 282 286 287 287 289 288 288 289 286 280 280 279 278 278 280 276 276 276 276 276 276 277 276 275 275 274 274 273 271 271 270 269 268 268 267 267 266 267 266 265 265 265 264 264 265 265 265 265 265 265 265 265 265 264 264 264 264 263 263 262
283 283 286 284 283 285 286 286 283 279 282 282 281 281 280 280 279 277 278 281 282 278 277 282 283 281 284 286 288 289 289 289 290 290 289 286 283 279 277 276 276 276 276 276 276 277 277 277 276 275 274 274 273 272 271 269 268 267 267 267 267 266 266 265 265 264 264 264 264 264 264 265 265 265 265 264 264 263 263 263 263 262 262 262 261 262
281 283 285 285 283 284 284 284 284 281 281 281 281 281 282 280 279 280 280 282 281 281 283 283 283 283 286 287 289 290 291 290 291 291 284 281 281 280 278 277 276 276 276 276 276 277 277 277 276 275 274 273 272 271 270 268 267 267 267 266 266 265 265 265 264 264 264 263 264 264 264 264 264 264 263 263 262 262 262 261 261 261 260 260 261 261
284 283 289 285 283 283 284 284 282 282 281 281 282 283 283 282 280 280 281 282 282 280 282 282 282 282 288 290 290 291 291 290 289 288 288 288 283 280 278 277 277 276 276 276 277 277 277 276 275 274 273 273 272 271 269 267 267 266 266 266 265 265 265 264 263 263 263 263 263 263 264 263 263 263 262 261 261 260 260 260 260 259 259 259 260 260
284 280 282 279 281 281 285 283 281 281 280 280 281 282 283 282 280 282 281 282 280 279 281 280 279 280 286 289 289 289 288 288 288 288 288 289 288 283 279 279 278 277 277 276 277 277 276 275 274 274 273 272 271 269 268 267 266 266 265 265 264 264 264 263 263 262 262 263 263 263 263 262 261 260 260 260 259 259 259 259 258 258 259 259 259 260
282 280 281 281 279 279 283 277 278 278 278 278 280 283 284 284 285 285 286 285 284 284 280 278 280 286 288 289 287 288 288 287 288 288 288 288 287 283 281 280 279 278 277 277 276 276 276 276 275 274 273 271 270 268 267 267 266 265 265 264 264 264 263 262 262 262 262 262 262 262 261 260 259 259 259 259 258 258 258 258 258 258 258 258 259 260
277 281 282 284 279 280 278 276 278 277 273 276 286 286 287 284 285 283 283 285 286 286 283 286 286 288 289 288 287 287 288 289 290 290 289 288 286 281 280 280 280 279 278 277 277 277 276 276 275 274 272 270 269 267 267 266 265 265 265 264 263 262 262 262 262 261 261 261 261 260 260 259 258 258 258 258 257 257 257 257 257 258 258 259 260 261
281 281 281 284 279 279 276 277 275 272 275 286 287 286 284 285 285 284 285 286 287 287 287 286 286 287 288 289 289 290 290 291 291 289 284 283 285 284 282 280 279 279 278 277 276 276 276 276 274 271 269 268 267 266 266 265 264 264 263 263 262 262 261 260 260 260 260 260 259 259 258 258 257 257 257 257 257 257 257 257 257 258 259 259 260 261
282 281 280 280 280 275 273 276 272 273 284 286 287 288 283 284 283 283 283 286 287 287 287 286 287 289 289 289 290 291 290 290 287 285 282 282 283 284 282 281 280 279 277 277 277 277 276 275 272 270 268 267 266 265 265 265 264 262 262 262 261 260 259 259 259 259 259 258 257 257 258 257 256 256 256 256 256 256 256 257 258 258 259 260 260 261
286 284 282 279 284 277 278 277 277 283 283 284 284 286 285 282 279 282 280 284 289 289 287 286 287 289 289 289 290 290 285 282 284 288 282 283 282 282 283 282 281 279 279 278 278 277 277 274 272 269 267 266 265 265 264 263 262 261 261 260 259 258 259 259 258 258 258 257 257 257 257 256 256 255 255 255 255 256 256 257 257 258 260 259 260 260
286 284 284 281 280 284 278 277 277 277 274 280 286 289 286 287 287 286 284 283 290 291 289 287 287 288 289 289 289 284 279 281 282 285 288 283 281 280 280 279 277 277 277 277 275 274 272 270 268 267 265 264 264 264 263 262 261 260 260 259 259 258 259 258 257 257 256 257 256 256 256 256 255 255 255 255 255 255 256 257 258 259 260 259 259 259
285 286 286 283 280 282 279 276 275 274 277 285 286 283 283 284 286 283 282 280 289 288 288 289 287 288 288 287 285 279 280 277 281 285 288 279 279 279 278 276 276 277 276 275 273 270 268 267 266 265 265 264 263 263 262 261 260 259 259 259 258 258 257 257 256 256 256 256 256 255 255 255 255 255 254 254 255 256 256 257 258 259 259 259 259 259
281 281 281 279 279 280 279 277 275 280 280 285 286 279 280 283 286 284 273 277 287 287 288 288 288 288 287 287 282 281 281 279 281 286 282 279 278 277 277 276 275 274 273 272 270 268 266 266 265 264 263 263 262 262 261 261 260 259 259 259 258 257 257 256 256 256 256 256 255 254 254 255 254 254 254 254 255 256 257 258 258 258 259 259 259 259
278 279 280 277 279 280 281 278 281 281 287 289 286 279 282 286 286 278 275 283 284 285 287 288 288 288 288 283 281 281 283 287 285 279 275 277 276 275 275 275 274 273 271 269 267 268 266 265 265 264 263 263 262 261 261 260 259 259 259 258 257 257 257 257 256 255 255 254 254 254 254 254 254 253 254 255 255 256 257 258 258 258 258 258 258 259
277 279 279 280 278 278 279 278 278 282 287 290 282 282 284 284 276 278 287 284 289 285 284 287 287 287 286 283 282 284 286 284 274 276 276 276 276 275 274 272 270 268 268 268 268 267 266 265 264 263 262 262 261 260 260 259 258 258 258 258 257 256 257 256 255 254 253 253 252 253 252 253 253 254 254 255 256 256 257 258 258 258 258 258 258 258
279 278 274 278 280 280 280 277 276 274 285 292 282 282 284 283 285 291 292 287 287 286 283 283 286 286 285 283 283 284 281 277 277 276 276 275 274 273 271 269 268 267 266 266 266 266 265 263 262 261 261 260 260 260 260 258 257 257 257 257 257 257 256 255 254 253 252 252 252 252 252 252 253 254 254 255 256 256 256 257 257 257 257 258 258 259
286 280 277 280 284 277 277 275 276 284 289 286 287 284 284 288 293 294 292 290 292 288 285 285 284 285 284 285 283 282 280 277 275 275 275 275 274 272 271 270 268 267 266 266 265 264 264 262 261 260 260 260 260 260 259 257 256 256 256 256 257 256 255 254 253 251 250 250 251 251 252 253 253 254 254 255 256 256 255 256 256 257 257 258 259 259
287 286 286 283 285 284 280 284 288 290 287 286 291 292 292 290 292 293 291 291 291 288 285 286 286 284 284 284 283 282 279 278 278 276 275 274 273 271 270 269 268 266 265 264 263 263 263 261 259 259 258 258 258 258 257 257 256 256 255 256 256 255 254 252 250 249 249 249 250 251 251 252 253 253 254 255 255 255 255 255 255 255 257 258 259 260
292 293 292 289 286 290 291 290 290 287 283 285 289 293 293 292 291 290 289 289 289 290 285 286 287 285 283 283 283 280 281 279 277 276 276 274 272 271 270 269 268 267 265 264 263 263 261 260 258 257 257 257 257 257 257 256 256 255 256 255 255 254 253 250 248 248 247 248 249 250 251 251 253 254 254 254 255 255 255 255 255 255 257 258 259 260
289 290 288 286 288 286 281 290 289 289 286 284 287 290 292 291 291 290 289 289 290 290 285 286 286 285 284 283 284 283 281 279 278 276 275 273 272 270 269 268 267 265 264 263 263 261 259 258 257 256 256 256 256 256 256 255 256 255 255 254 254 253 251 248 249 249 248 248 249 249 250 251 253 254 255 254 254 255 255 255 255 256 257 259 259 260
285 290 287 286 287 285 285 290 291 292 291 289 288 288 288 289 288 286 287 289 289 289 287 285 285 285 284 283 283 283 282 279 278 276 275 273 272 270 269 268 266 265 264 263 262 260 259 258 257 256 256 256 256 255 255 254 254 254 254 254 253 251 249 249 249 248 247 246 248 250 251 251 255 255 254 254 254 254 254 255 256 257 258 258 259 260
289 291 284 286 286 287 290 290 291 290 289 289 291 291 291 291 289 288 287 286 286 285 284 283 284 285 283 284 284 283 281 278 278 277 275 273 272 271 269 267 266 265 263 261 260 260 259 258 257 257 257 256 256 255 254 254 253 253 253 253 251 250 249 249 249 248 247 248 249 250 252 252 251 252 253 253 254 254 255 255 256 258 259 261 262 263
287 286 288 287 284 284 285 287 290 285 285 289 290 291 292 292 292 290 289 286 285 285 284 283 282 284 284 284 283 283 281 279 278 277 275 274 272 270 269 267 265 264 262 262 260 260 260 258 258 257 257 256 255 254 253 253 253 253 253 252 251 250 248 248 248 248 247 248 249 250 251 251 252 251 253 252 253 254 254 258 263 262 260 260 265 268
289 289 289 286 285 284 289 292 292 292 291 293 294 294 294 293 292 290 289 288 287 286 286 285 284 282 281 282 283 283 282 280 278 277 275 274 272 271 269 266 264 263 261 260 259 259 258 258 257 257 256 255 254 253 253 252 252 252 252 252 252 250 248 249 249 248 248 248 248 251 253 252 252 252 252 253 253 253 253 253 255 262 264 265 266 267
Wind_Speed
1 2 5 6 8 8 6 7 6 5 5 2 3 2 6 6 9 5 4 3 0 1 10 13 10 14 18 19 17 7 8 11 11 11 13 11 12 13 13 15 16 15 16 7 8 9 9 10 9 7 6 6 5 5 5 5 5 5 5 3 4 4 3 3 3 2 2 1 3 2 3 5 5 5 5 4 4 4 5 1 0 1 1 2 3 4
2 2 9 9 9 7 5 4 5 5 2 2 2 4 8 4 10 6 3 1 4 3 6 4 5 12 16 18 18 6 7 15 15 14 15 15 14 13 16 17 17 15 3 6 7 8 7 8 8 5 6 6 8 6 5 6 7 6 4 4 5 3 3 4 4 3 2 2 2 2 5 5 6 6 5 6 5 5 4 1 2 3 3 3 4 5
1 9 10 7 3 4 4 5 3 5 3 1 4 3 3 9 5 10 3 2 0 2 9 6 10 15 17 18 20 16 15 13 10 15 19 15 15 14 14 16 13 8 10 9 12 10 10 10 8 7 6 7 9 9 8 7 5 4 4 5 4 4 4 4 4 3 3 3 3 3 4 3 5 5 5 5 6 5 5 3 4 4 4 5 5 5
6 7 12 2 6 5 3 4 5 3 2 3 1 1 9 3 3 8 1 3 1 2 6 6 15 17 17 16 22 22 8 12 8 13 16 11 14 16 17 15 15 16 14 16 17 16 12 11 9 6 7 8 6 7 6 5 6 5 5 4 4 5 4 4 4 3 4 4 4 4 4 5 5 6 4 5 5 4 3 4 3 3 3 3 5 4
11 2 1 6 4 5 3 2 4 3 6 2 5 5 5 5 6 8 5 5 5 2 1 7 14 15 9 10 9 3 2 2 8 6 10 9 10 9 6 9 14 18 17 15 14 13 12 12 11 10 9 8 8 8 8 7 6 5 6 6 5 5 5 4 3 4 3 2 3 3 4 5 5 4 5 4 5 5 3 3 3 4 3 4 4 4
13 5 3 3 1 1 4 3 6 6 5 3 7 11 8 6 6 4 4 5 5 3 3 4 10 9 1 3 10 8 3 4 3 5 14 10 8 7 11 14 10 11 12 16 17 17 15 13 9 8 9 9 9 9 9 8 7 5 5 4 4 4 4 4 4 4 3 3 3 3 4 5 4 6 7 7 9 9 7 7 5 4 3 4 4 4
6 2 3 5 4 2 3 4 3 6 6 1 5 3 7 3 1 1 3 5 6 2 2 3 5 19 4 2 5 5 3 10 5 6 15 6 8 9 13 12 10 12 11 10 10 12 14 13 12 11 11 11 11 10 8 7 6 6 5 4 4 5 4 3 3 3 3 3 3 3 3 4 4 5 5 4 5 6 6 5 7 7 6 5 6 6
2 0 5 3 4 3 3 4 5 9 5 5 1 4 6 4 1 2 1 2 6 0 3 2 5 11 19 7 10 11 8 11 13 15 14 11 9 11 12 10 9 12 13 14 16 17 15 14 16 15 13 11 12 10 7 7 6 6 7 5 5 4 3 3 3 3 3 4 3 3 4 4 4 4 7 6 6 4 4 7 8 6 6 6 5 7
4 3 2 3 1 3 7 5 5 7 6 3 3 5 3 2 3 3 1 2 2 5 9 6 1 2 10 3 4 2 5 10 15 15 14 10 9 11 12 10 11 12 14 15 15 17 17 17 15 13 13 11 10 8 9 9 7 7 5 4 3 3 3 3 3 3 3 3 3 4 3 4 4 5 5 5 5 5 5 7 7 7 7 6 6 6
1 2 5 6 5 7 4 1 4 10 4 1 5 4 6 6 5 2 1 0 5 4 15 7 8 5 22 4 4 3 2 8 11 13 14 11 8 7 9 9 9 8 9 12 14 14 15 15 13 11 10 10 10 9 8 7 5 5 4 3 3 3 2 2 3 3 3 3 2 3 3 4 6 4 6 4 7 6 5 7 8 7 7 7 7 6
1 5 5 4 5 3 4 2 2 2 2 5 4 2 4 6 4 3 6 2 3 6 15 6 16 9 12 2 9 9 9 11 9 5 7 7 8 6 6 8 9 10 10 10 11 11 12 10 11 10 11 10 8 6 6 5 5 4 4 4 3 3 2 2 3 2 3 2 2 3 3 4 6 6 6 7 8 7 7 8 9 8 8 7 8 7
1 1 1 2 4 4 4 4 3 2 2 3 1 2 6 3 5 3 4 4 1 11 3 1 10 8 10 5 6 6 4 3 9 7 7 8 10 7 5 6 8 8 9 9 10 10 11 9 9 7 10 9 8 6 5 5 4 4 4 3 3 2 2 3 2 2 3 2 3 2 3 4 5 5 6 7 9 8 9 8 10 9 9 9 8 8
5 8 2 2 4 8 3 4 1 2 2 4 4 4 1 6 7 5 3 2 6 10 1 2 4 5 17 19 4 7 11 7 8 8 8 8 9 4 4 6 7 7 7 10 11 11 12 15 14 12 10 8 8 8 8 8 6 5 4 4 3 3 2 3 2 2 3 2 3 3 3 4 4 5 5 7 8 7 7 8 9 9 10 9 10 9
8 1 1 4 1 5 7 6 2 1 3 7 6 5 4 0 0 6 5 2 7 6 3 2 2 10 10 10 15 20 19 13 10 10 8 9 9 5 4 5 6 8 10 11 11 12 14 15 13 11 11 10 9 9 9 7 6 5 4 4 3 4 2 2 1 2 2 3 3 3 3 4 4 5 5 6 7 8 7 7 9 9 10 11 10 10
4 9 6 7 4 3 8 10 9 6 9 9 3 9 8 8 6 5 3 6 11 8 1 5 3 9 2 5 1 10 11 8 6 5 7 6 4 4 4 4 6 7 8 9 11 13 15 14 13 12 11 10 9 8 7 6 5 5 5 4 4 3 2 1 2 1 3 3 3 3 3 4 4 5 5 6 6 7 8 8 9 10 9 9 11 9
9 9 4 1 1 4 9 0 5 6 4 2 3 5 5 9 6 6 5 3 4 7 9 4 9 4 7 1 2 2 2 6 2 5 5 8 1 3 3 7 9 9 9 10 11 12 12 12 11 10 10 9 8 7 6 6 5 5 6 5 4 3 2 1 1 2 2 3 3 3 4 4 4 4 5 6 6 7 7 9 9 10 9 9 10 10
2 6 0 2 2 1 2 2 1 3 7 4 6 7 7 1 5 2 2 1 1 3 17 2 12 11 3 12 10 8 3 11 3 7 7 7 1 3 7 8 8 9 10 11 13 13 13 9 10 10 10 8 7 7 7 7 7 7 6 4 3 2 1 1 2 2 3 3 4 4 4 4 4 4 5 7 8 9 8 8 9 9 10 10 9 10
6 6 1 4 5 0 1 0 0 4 3 8 3 8 2 2 4 5 5 3 2 4 11 1 15 21 5 15 4 1 6 6 6 11 10 3 2 5 10 9 9 11 11 11 9 9 10 11 11 9 8 9 9 8 7 6 5 6 5 4 2 1 1 2 1 2 2 3 4 4 4 4 4 5 6 6 8 8 9 9 8 8 9 9 9 10
5 9 2 2 1 2 1 1 1 1 1 2 2 2 5 3 1 1 4 4 3 5 9 10 7 16 14 16 3 6 7 8 9 10 6 6 6 10 12 10 7 6 7 10 13 12 13 14 13 12 11 8 8 7 7 5 6 4 3 3 2 2 2 2 2 2 2 3 4 3 4 4 5 5 6 7 8 8 9 10 9 9 10 10 10 10
0 5 4 1 2 1 1 5 9 4 1 1 0 1 1 2 2 5 7 3 4 6 2 18 11 22 4 9 6 9 12 10 10 6 10 12 12 12 11 9 10 11 12 12 12 13 14 13 12 12 11 10 8 6 5 5 5 5 4 3 2 1 1 1 2 3 4 4 4 4 4 4 4 5 6 7 7 8 9 10 10 10 10 10 10 10
4 4 9 1 4 2 5 9 14 15 11 2 2 2 1 0 2 4 1 5 6 4 7 5 13 23 7 10 9 10 8 12 11 12 10 10 12 14 12 11 11 12 12 13 14 14 14 13 11 10 9 8 6 5 5 6 7 4 3 3 2 2 2 2 3 3 3 3 3 3 5 5 5 6 6 7 8 9 9 9 10 9 9 10 10 11
3 2 12 3 0 7 10 1 1 7 14 15 15 14 15 9 4 2 13 3 2 4 8 6 20 20 12 7 7 7 8 8 11 11 10 9 12 12 12 11 11 11 13 13 13 12 12 11 10 8 7 5 6 6 6 5 5 4 3 3 2 1 1 2 3 3 3 3 3 4 5 6 5 6 6 8 8 9 9 9 9 10 11 11 12 12
5 3 2 9 14 13 3 0 1 1 2 1 5 6 11 9 6 5 12 10 1 8 4 2 2 27 3 6 6 6 7 9 11 11 9 9 11 11 12 11 10 12 12 13 12 13 13 12 10 10 9 8 8 7 6 5 5 4 4 3 2 1 2 2 3 2 2 3 4 5 5 6 6 6 7 8 8 9 9 10 11 10 12 13 12 12
4 2 3 12 7 4 1 1 2 2 1 3 5 3 6 12 17 16 12 4 6 2 4 0 4 25 11 3 4 4 3 5 3 5 9 8 7 9 10 9 11 11 10 8 9 8 9 8 8 9 9 8 7 6 7 6 4 4 3 3 2 2 2 2 2 2 3 3 4 5 6 6 6 7 7 8 8 9 9 10 10 11 12 12 12 14
4 5 6 3 4 7 3 1 1 2 2 5 7 7 10 8 6 3 3 1 2 12 8 8 18 26 1 2 3 2 1 4 7 7 7 8 8 8 8 9 9 9 7 8 11 12 9 9 12 12 9 8 7 6 6 6 5 4 3 3 2 2 1 1 2 2 3 3 6 6 6 7 7 7 8 8 8 10 10 10 11 11 11 13 13 14
6 6 8 8 15 15 14 11 10 8 13 4 2 1 8 17 14 3 11 7 12 8 14 11 23 27 18 5 4 1 3 7 8 8 6 8 9 8 7 9 9 9 12 12 11 9 15 16 11 8 9 8 8 8 6 5 5 4 4 3 2 1 0 1 1 2 3 4 5 6 7 7 7 8 8 9 9 10 10 10 11 10 11 12 14 15
4 4 11 16 16 18 19 12 1 7 6 7 11 15 16 12 17 15 11 8 15 14 13 24 29 20 22 31 19 7 8 9 14 8 10 10 11 10 7 9 11 12 13 15 15 14 9 7 13 11 9 8 8 7 6 6 5 4 4 2 1 1 1 1 2 3 4 5 5 6 7 7 7 8 8 8 9 9 9 10 10 11 12 11 14 15
3 7 15 20 22 21 17 17 6 10 8 11 13 13 18 17 14 17 17 22 16 5 21 24 19 16 28 36 23 15 19 15 16 17 11 9 9 11 13 11 8 6 7 8 8 11 16 17 11 10 10 9 8 6 6 5 6 5 4 2 1 1 1 1 2 3 4 4 5 6 7 7 7 8 8 8 9 9 10 9 11 11 10 12 14 15
5 12 17 16 18 18 18 21 7 6 9 8 12 16 18 18 15 19 22 27 24 17 25 24 20 22 31 29 21 19 19 15 19 20 12 10 8 7 6 8 11 13 12 12 14 15 14 14 14 12 11 10 9 9 8 6 5 4 3 3 2 2 1 2 3 4 4 5 6 6 7 7 7 7 8 8 9 9 10 11 11 11 13 12 12 12
1 11 12 11 14 15 20 20 11 9 6 7 12 17 20 13 19 23 27 32 27 21 24 28 28 32 31 27 18 22 16 12 16 14 6 5 8 8 9 11 12 12 14 16 16 17 15 14 12 12 11 10 11 10 8 7 6 4 4 2 2 2 1 3 3 4 5 5 6 6 7 7 7 7 8 8 9 10 11 11 11 12 12 12 12 12
7 11 15 10 12 17 20 15 8 12 10 16 19 24 24 13 17 24 27 24 17 17 27 31 29 31 30 23 16 21 17 10 13 18 21 17 10 11 11 12 12 13 15 15 14 14 13 12 11 10 12 12 11 10 9 7 6 5 3 3 2 2 2 2 3 3 4 6 6 6 7 7 7 8 8 8 8 9 10 11 12 11 12 12 12 13
7 6 1 2 10 16 15 13 7 8 7 11 20 30 28 22 21 25 21 18 13 23 26 19 20 26 29 24 17 16 17 16 21 23 21 19 17 11 12 13 13 14 14 15 15 13 13 13 14 15 15 12 10 10 9 8 6 5 4 3 2 2 1 1 2 4 5 6 6 6 7 7 7 7 8 8 10 11 11 11 11 12 12 12 13 13
8 4 7 8 12 16 11 6 5 4 1 10 23 35 26 19 25 23 20 17 22 25 17 19 27 27 25 18 18 21 17 17 19 18 19 18 13 10 14 15 15 14 14 14 15 16 16 17 17 16 12 11 11 10 8 9 7 6 5 4 2 2 1 1 2 4 6 5 5 6 6 5 6 7 8 9 10 10 10 11 11 11 12 13 12 12
3 8 10 6 11 11 2 4 4 4 12 23 15 1 13 21 21 22 24 28 29 18 19 22 26 25 21 18 20 24 23 22 20 18 11 11 12 10 12 14 14 14 14 13 14 16 16 13 11 10 12 12 10 10 9 8 7 6 6 5 3 1 0 2 4 4 5 4 5 5 5 4 6 7 8 9 9 10 10 11 11 11 10 11 12 12
11 10 12 5 6 9 4 4 1 15 21 20 8 4 4 8 11 17 22 27 30 24 22 24 28 27 27 22 24 24 22 23 21 15 6 8 9 11 14 15 15 14 14 13 13 13 15 16 13 12 12 12 12 10 9 8 6 6 5 5 3 1 1 2 3 3 5 4 4 3 3 5 6 7 8 9 9 10 10 10 11 12 10 10 11 13
11 13 5 4 3 5 3 9 16 23 12 11 17 16 5 2 5 4 15 24 26 24 22 23 24 29 27 25 27 20 21 19 15 12 7 9 14 14 12 13 14 14 14 14 16 16 17 17 18 17 15 11 11 8 7 8 7 7 6 4 3 2 1 3 3 4 3 4 3 3 4 5 6 7 8 10 10 10 11 11 11 12 12 11 11 11
15 8 7 11 9 15 12 14 20 12 18 24 24 27 12 8 5 9 17 22 26 24 17 15 22 27 24 25 21 19 7 5 11 21 5 13 14 13 15 15 14 15 15 14 16 16 14 13 14 15 14 11 9 10 9 8 7 7 6 4 2 2 3 3 3 3 3 3 3 3 4 5 6 7 8 9 10 11 11 12 13 11 10 12 11 12
16 16 10 13 9 12 15 13 11 11 17 22 35 19 8 8 9 10 8 23 28 32 10 19 24 24 26 20 19 9 5 4 13 20 14 12 10 12 10 6 4 6 7 9 10 12 13 13 14 10 11 13 10 9 9 8 8 7 5 3 3 3 3 4 3 4 3 2 2 4 4 5 5 7 9 9 10 11 11 11 9 10 10 11 13 13
14 15 14 15 12 9 11 14 15 14 21 19 22 2 3 5 12 6 6 20 26 7 19 21 20 23 20 16 11 8 4 6 15 16 12 2 7 9 8 5 5 7 11 15 19 18 16 16 18 15 12 12 12 9 9 9 7 7 5 4 3 3 4 3 2 2 2 3 4 3 3 4 5 6 7 9 10 10 12 11 11 10 10 10 11 12
12 11 10 13 14 14 15 14 16 10 16 14 9 2 5 11 11 9 7 19 14 19 18 15 21 18 16 14 8 9 11 11 13 16 3 8 7 8 10 10 10 11 11 11 11 16 19 18 18 12 12 12 11 11 10 9 7 6 6 4 4 5 4 2 1 2 3 3 3 3 3 4 4 6 7 10 10 9 9 10 10 11 11 11 9 11
7 8 12 20 18 20 20 17 11 10 8 19 13 7 7 8 12 7 21 19 5 5 10 16 15 17 13 8 12 11 14 18 11 1 5 6 9 7 5 6 9 13 16 16 15 14 13 9 11 13 12 10 11 10 9 8 8 7 5 5 6 5 2 1 1 2 2 3 3 3 4 4 4 7 9 8 9 9 9 8 10 12 11 12 10 10
6 7 5 9 14 16 18 19 16 13 8 11 4 16 10 7 9 22 20 2 6 6 8 11 14 12 10 14 13 13 14 10 6 4 6 6 8 8 10 12 13 11 9 11 14 13 12 11 12 13 12 10 11 9 8 8 7 6 6 6 5 3 2 1 0 1 2 2 3 3 4 4 6 6 7 8 8 9 9 8 9 10 11 10 11 13
14 11 11 14 10 8 7 12 8 12 15 20 12 4 6 12 22 21 18 10 5 7 8 8 9 10 11 12 14 16 5 6 7 7 8 9 11 13 15 18 20 18 17 16 13 7 13 12 12 11 12 10 10 9 8 9 8 7 7 6 4 3 2 1 0 1 1 2 3 4 5 5 7 8 7 7 8 8 10 9 9 10 10 11 11 12
12 8 5 11 12 11 15 14 13 20 17 19 23 16 17 25 25 22 16 13 17 10 9 10 10 10 12 13 14 11 7 6 4 7 8 8 8 9 12 14 15 14 12 14 17 15 12 14 11 12 11 10 9 8 8 9 8 7 7 5 4 3 2 1 0 0 1 2 3 5 6 6 7 7 7 7 8 7 9 9 9 9 9 10 10 10
16 20 17 17 15 15 14 18 19 14 9 19 22 22 22 30 28 25 13 13 13 10 7 7 12 11 13 13 9 10 8 10 11 12 13 13 12 14 17 19 20 19 20 19 16 14 12 17 14 12 11 8 9 7 7 6 9 9 6 5 4 3 3 1 0 0 1 3 4 5 6 8 7 7 6 6 7 8 8 9 8 9 8 8 9 10
20 27 20 13 9 14 17 6 5 6 7 15 17 20 23 21 20 19 17 14 14 14 11 13 11 9 11 9 9 6 11 11 11 11 8 10 12 11 12 13 12 12 13 12 13 12 14 14 15 14 13 10 8 7 6 5 6 9 7 6 4 3 3 2 1 2 2 3 4 5 7 9 9 7 5 5 6 7 7 8 9 8 9 8 8 10
15 10 12 15 9 8 15 13 26 21 13 14 21 24 22 15 16 15 15 18 20 14 9 10 11 12 14 13 14 16 14 12 13 11 10 11 13 16 18 18 18 18 20 18 12 16 15 17 15 13 11 12 9 7 6 6 4 5 7 6 5 4 3 2 3 3 3 4 4 4 5 7 7 8 7 5 5 5 7 7 7 8 8 8 9 9
14 11 15 16 12 17 20 18 23 22 22 18 17 18 20 21 18 10 13 13 13 10 11 12 8 8 10 12 16 14 14 14 15 13 13 14 15 16 17 17 18 12 4 9 11 13 12 14 16 12 12 11 9 8 7 6 6 6 6 5 5 5 4 4 3 4 4 3 3 4 5 6 8 8 8 8 7 6 6 6 7 7 8 9 9 9
8 16 14 11 17 21 18 20 15 17 9 12 21 23 21 19 17 20 20 15 9 9 8 5 11 13 14 18 16 14 12 14 17 18 17 14 13 14 17 19 15 14 16 14 13 13 16 15 12 12 12 11 9 9 8 7 6 6 7 6 5 5 5 5 3 4 4 3 3 4 4 5 4 5 6 8 10 8 5 6 7 7 8 8 8 10
7 15 8 9 17 16 18 21 20 18 18 19 24 26 25 24 25 20 13 13 15 15 13 12 12 12 14 14 15 15 17 15 15 15 17 17 18 19 20 20 18 18 11 8 10 11 11 12 19 13 12 10 10 9 9 8 7 6 6 5 5 6 6 5 5 5 5 3 2 4 5 4 5 4 5 5 7 10 13 10 12 9 8 9 16 21
19 20 15 19 17 21 22 25 23 24 23 19 23 24 21 20 18 16 18 20 20 20 17 17 16 12 11 12 12 16 17 16 17 16 15 13 15 19 22 23 20 14 13 14 15 14 13 15 12 12 12 10 9 9 9 8 7 6 6 6 5 5 6 6 6 5 4 2 2 4 4 5 5 5 4 4 5 5 7 13 14 13 15 16 19 20
Wind_Direction
51 180 217 216 229 227 231 193 197 201 158 103 112 151 235 235 275 274 229 259 19 317 251 255 242 256 265 268 271 223 199 228 235 228 228 221 212 210 213 215 215 213 214 185 190 191 188 190 191 187 169 171 172 169 172 172 194 194 192 171 217 228 214 202 218 241 217 256 308 292 266 281 292 287 280 274 275 277 269 232 230 302 283 303 322 332
64 297 247 223 223 212 214 171 104 90 111 167 190 205 271 207 261 266 279 22 310 170 288 286 260 256 258 269 269 243 178 229 218 227 234 225 218 214 213 217 215 215 146 164 201 204 197 196 197 180 175 163 160 194 176 186 199 198 194 182 218 231 211 214 206 210 206 194 196 241 270 277 293 299 297 305 310 297 291 291 335 330 329 333 332 329
25 229 240 218 201 98 79 126 153 157 162 97 198 234 294 268 251 281 307 5 323 145 260 289 283 267 262 261 268 255 231 242 212 212 232 216 219 220 216 220 214 194 198 191 203 198 198 197 195 183 183 183 177 177 186 197 190 203 202 210 216 218 207 221 213 197 211 217 224 201 249 247 272 256 248 256 265 280 286 310 338 333 329 331 326 322
290 270 244 180 134 109 62 99 115 78 78 153 116 168 238 234 10 305 299 7 304 181 293 310 289 276 265 255 256 262 243 249 226 223 236 216 222 219 217 209 203 204 195 197 195 197 194 195 190 189 188 188 181 179 191 196 200 205 206 210 208 223 218 222 223 213 215 209 226 239 246 258 240 259 262 260 269 273 289 306 296 282 283 290 293 303
218 194 86 113 146 147 169 152 134 164 243 261 195 219 253 263 233 199 269 318 285 334 104 286 280 272 232 237 266 328 352 239 257 250 254 238 232 236 235 215 207 204 198 197 196 195 192 193 195 190 190 181 182 187 192 196 200 195 203 206 199 210 216 216 223 222 216 227 270 270 273 256 266 270 254 249 251 228 247 282 288 276 265 269 271 276
273 246 140 100 110 124 144 197 212 155 233 318 230 206 223 227 259 292 340 3 3 329 331 24 335 283 299 226 252 272 332 282 262 244 256 236 227 223 228 224 207 211 197 197 195 192 190 190 185 195 190 183 189 192 200 194 198 190 205 201 206 219 222 226 229 218 197 212 227 274 306 318 314 317 327 328 327 326 327 312 296 286 274 267 268 267
226 22 136 190 154 161 182 205 244 158 193 63 269 197 212 214 192 347 342 27 309 241 313 43 118 287 127 242 243 270 262 278 264 221 261 249 225 216 229 224 203 198 194 197 190 188 190 192 187 194 191 189 188 201 194 194 196 197 202 198 196 203 214 221 233 216 205 227 229 235 248 248 262 278 271 254 272 280 291 291 297 296 298 294 292 293
99 31 68 65 107 140 189 252 242 154 118 237 253 111 100 107 127 189 115 199 246 298 281 221 177 264 285 230 241 246 268 270 280 274 262 253 233 225 230 220 204 197 195 190 192 191 193 187 189 189 190 190 192 193 188 191 195 196 208 195 196 200 210 227 231 238 211 226 242 255 263 267 274 260 279 285 273 267 277 291 290 293 288 288 284 286
133 171 171 136 112 154 211 209 189 162 148 220 210 129 128 132 175 148 114 232 244 8 295 196 115 297 258 273 344 99 208 261 260 261 267 258 235 231 233 219 208 201 196 189 190 191 188 191 192 185 188 194 193 186 185 191 193 198 201 186 171 199 209 239 238 238 243 227 239 243 265 286 271 273 280 285 285 287 284 283 289 288 287 284 277 273
308 160 208 159 149 230 222 273 180 167 196 243 144 96 84 72 68 94 113 163 317 56 276 178 195 192 279 171 151 354 186 249 248 247 254 261 247 232 230 223 208 199 197 198 197 188 190 191 188 188 184 190 194 193 189 187 182 190 184 190 173 212 210 230 252 243 255 243 237 269 273 282 292 297 295 287 293 295 293 290 292 291 291 288 287 279
288 290 154 151 199 203 131 58 135 51 97 122 105 88 7 40 34 32 67 82 34 269 264 210 191 168 280 185 178 153 200 202 222 268 279 276 273 248 229 210 199 195 195 194 192 192 191 186 184 182 188 190 195 192 187 192 195 190 186 195 186 209 219 232 244 242 258 254 248 257 273 284 297 300 296 305 302 304 306 303 301 300 296 291 287 287
350 45 193 258 81 108 100 79 35 98 144 130 81 105 18 337 16 36 338 40 162 265 265 274 179 186 214 283 225 233 289 220 176 207 233 256 259 251 224 217 202 193 191 184 182 186 181 183 194 182 189 188 191 188 194 207 200 191 192 180 201 225 229 240 247 251 258 255 267 267 278 289 289 288 295 297 299 302 299 298 298 299 296 293 290 288
276 218 229 305 202 132 116 84 345 7 27 92 81 40 79 274 21 316 32 296 197 232 231 42 157 313 236 244 221 249 256 236 223 212 213 242 264 238 224 211 200 190 178 183 187 182 184 188 186 190 188 185 189 190 198 202 200 190 177 183 190 252 228 243 244 249 263 280 285 291 294 291 282 284 284 287 287 290 293 297 295 297 295 296 296 296
278 333 122 218 78 216 136 153 240 251 223 121 153 144 102 275 130 261 268 230 299 288 257 156 133 248 275 279 216 229 235 228 224 221 235 242 259 257 214 207 194 191 190 190 187 188 190 189 187 183 185 187 187 193 194 197 191 185 184 183 189 238 233 244 261 264 293 293 292 293 288 279 279 278 278 278 285 292 291 290 290 290 291 295 291 296
304 307 259 148 237 160 182 207 185 160 158 198 121 152 182 141 155 233 207 242 258 257 245 243 53 237 18 238 260 204 226 239 236 237 241 263 258 249 222 199 197 195 198 189 191 194 192 190 183 183 185 185 187 188 193 191 189 169 189 187 200 242 254 241 269 307 304 298 295 291 273 270 270 272 275 280 286 294 295 291 288 286 288 288 294 292
220 245 255 254 233 143 186 291 107 105 61 174 163 82 104 224 126 222 205 202 300 341 312 161 217 191 209 320 298 221 306 265 281 256 269 269 252 202 184 199 204 201 193 192 196 198 198 191 183 182 186 185 183 189 189 188 177 179 195 189 198 213 252 269 297 297 274 283 286 281 280 274 271 280 289 294 293 288 285 288 289 289 288 288 292 293
26 271 316 6 63 147 200 115 231 141 208 209 116 196 211 151 134 17 352 66 65 66 265 139 277 263 331 265 219 247 223 251 244 259 250 253 226 172 222 219 209 201 195 194 199 198 192 189 194 187 181 182 186 185 191 192 184 185 183 182 205 224 238 265 281 267 281 285 290 282 279 282 290 292 297 296 293 290 287 286 288 290 291 293 291 293
187 255 199 122 223 313 243 184 26 24 148 104 196 233 167 145 109 128 219 323 64 210 269 73 262 285 315 288 55 136 209 259 240 240 237 253 197 214 234 224 207 203 202 200 203 200 195 194 189 188 187 184 184 189 189 194 181 179 169 167 187 224 268 274 252 269 266 280 279 282 284 289 293 299 295 291 290 292 293 291 291 291 294 294 295 293
122 277 241 317 86 316 24 128 358 338 27 147 191 239 115 222 217 305 87 268 261 254 268 277 279 269 242 260 231 224 204 233 245 242 235 239 223 230 237 231 214 201 192 196 200 195 194 195 192 187 185 185 188 185 184 174 162 156 155 161 162 210 233 248 265 272 283 270 278 280 296 306 309 301 294 290 292 296 296 298 297 296 293 294 295 296
68 196 295 245 161 252 350 134 204 187 351 41 246 14 318 100 174 132 196 191 115 250 10 277 310 271 128 194 229 252 192 211 221 238 230 224 220 223 230 220 205 196 201 201 199 200 198 195 191 184 181 183 186 182 181 161 147 155 161 156 166 177 233 283 284 282 281 276 276 295 308 305 297 296 293 297 303 301 300 298 298 297 298 296 297 294
186 115 243 63 298 98 197 190 211 168 167 149 173 256 349 139 231 106 322 159 173 197 217 282 294 275 235 182 211 236 199 199 196 216 221 220 224 225 223 214 204 202 201 204 201 198 195 193 189 186 181 182 176 171 159 160 163 157 143 156 165 195 248 253 258 258 266 278 287 308 304 299 302 300 302 305 304 300 298 299 297 297 295 298 293 296
121 172 215 169 260 210 238 323 237 176 186 179 178 206 186 141 143 136 256 84 155 195 235 164 254 273 277 147 177 208 208 186 210 205 220 215 224 221 223 220 202 202 211 204 201 194 192 191 188 179 178 163 156 155 159 158 131 133 156 169 169 180 221 250 272 255 276 296 313 304 303 305 308 307 310 307 302 298 300 301 301 299 299 294 294 294
156 136 168 222 224 233 198 198 130 190 58 208 200 231 163 192 133 159 240 231 88 248 92 170 57 271 211 160 161 188 188 195 211 209 217 215 222 221 225 218 212 209 207 201 195 195 194 190 183 176 172 171 172 170 164 156 154 159 164 150 171 171 239 242 255 277 311 319 314 309 311 314 313 312 307 302 300 300 303 303 301 301 298 299 298 297
95 120 219 256 296 349 341 16 62 42 45 322 259 170 147 194 200 211 226 175 175 194 192 345 225 260 261 131 171 183 217 234 275 201 202 221 221 228 224 216 206 209 211 197 196 195 192 177 176 172 178 176 171 160 169 167 154 147 143 150 161 202 240 244 276 327 323 308 305 315 316 315 310 307 302 300 302 301 302 300 298 300 299 299 301 302
142 244 169 270 331 313 340 356 42 1 70 212 224 200 204 227 228 221 67 134 218 217 155 138 250 259 166 351 87 115 279 252 237 232 212 229 234 229 221 218 213 209 194 189 194 194 178 179 187 188 173 172 168 166 164 163 156 144 152 149 175 214 219 297 342 338 316 319 322 324 321 312 308 302 302 303 303 301 300 299 302 303 302 307 308 308
181 170 146 208 227 240 248 238 235 221 210 211 265 198 200 209 208 114 244 197 222 222 153 208 246 251 269 238 140 197 248 271 250 237 241 223 235 225 218 216 210 199 201 197 193 179 190 196 186 168 173 167 168 168 165 157 145 144 147 162 158 196 331 341 347 327 331 334 328 322 313 306 302 303 306 304 302 301 302 303 305 308 312 316 312 311
190 179 197 214 218 230 239 249 90 107 82 182 225 203 220 211 214 214 241 233 220 232 221 230 237 270 279 272 254 257 251 236 267 240 226 238 236 234 227 216 208 202 197 197 194 195 187 177 193 180 163 169 168 163 158 152 150 149 149 158 173 134 58 347 352 345 341 335 324 311 305 301 302 306 306 304 301 303 306 308 312 316 317 318 313 312
91 214 220 225 229 236 243 253 196 160 179 214 210 221 222 210 200 205 214 235 224 203 247 244 250 249 257 260 266 267 263 265 262 268 260 238 232 220 220 217 210 202 203 200 191 189 196 196 178 170 172 164 163 149 149 153 148 151 149 163 152 97 70 4 8 346 338 327 312 299 295 297 301 303 300 300 302 306 310 313 317 318 316 316 314 311
191 227 233 229 241 245 247 251 217 181 225 227 209 222 223 213 204 211 227 236 227 216 241 255 246 245 252 257 265 261 260 258 265 270 267 244 234 222 209 204 204 203 201 198 202 201 197 190 183 175 167 164 153 161 159 145 137 135 133 130 100 90 52 38 3 341 328 315 298 292 295 300 303 296 299 305 309 315 318 320 318 318 317 313 308 303
183 245 247 238 250 245 249 247 241 222 237 258 250 238 233 202 212 216 227 232 228 233 245 253 256 255 257 258 257 263 263 260 271 279 277 233 231 218 212 215 210 205 201 204 203 202 198 189 175 171 161 160 169 165 152 148 145 144 137 130 108 81 52 37 354 331 316 298 290 294 298 299 296 300 306 313 320 322 323 322 323 320 315 309 303 300
178 241 234 243 260 252 253 250 219 233 238 249 254 256 247 215 219 227 233 242 243 245 249 250 257 265 262 260 262 266 273 278 279 275 268 262 243 223 219 218 214 210 209 208 205 201 192 181 169 161 166 174 170 161 154 150 145 135 128 123 108 83 58 38 340 307 294 285 287 294 296 294 299 308 314 323 322 327 327 325 321 316 310 306 303 300
179 270 85 75 236 256 251 252 214 214 231 240 255 255 249 231 231 239 238 234 223 237 242 254 261 257 263 267 263 265 269 267 262 263 266 264 255 233 224 226 219 215 210 206 203 192 181 175 174 175 177 170 159 151 148 142 141 137 137 125 107 97 58 23 308 287 275 278 288 291 292 296 305 315 322 329 330 328 326 319 316 314 310 306 306 302
194 170 216 218 238 247 264 93 131 111 69 284 250 243 245 242 234 245 252 242 226 228 237 241 243 247 257 272 280 271 258 250 257 258 256 260 255 224 223 226 222 217 211 203 195 190 185 183 181 176 161 153 155 150 146 139 136 143 135 115 111 83 71 289 271 269 271 277 281 280 289 302 319 326 328 331 327 323 320 317 313 312 311 308 304 300
176 212 228 193 236 248 225 121 111 148 233 240 260 123 206 234 235 236 242 245 244 216 227 234 250 258 264 263 259 264 268 261 252 254 248 240 247 225 227 225 222 216 211 202 194 187 183 174 165 162 156 149 142 133 131 131 129 125 116 113 104 112 175 260 265 258 268 272 272 286 304 323 333 331 330 326 322 320 318 317 311 308 304 302 304 305
198 204 227 194 243 240 134 136 107 222 237 242 34 244 174 206 217 223 237 245 249 242 234 242 250 257 255 256 256 258 262 268 270 271 256 220 218 220 218 218 215 212 205 190 182 178 177 172 158 140 137 140 135 131 127 122 124 121 115 116 117 134 187 236 255 261 265 271 277 295 323 343 340 334 329 326 322 319 316 313 310 310 310 307 308 312
210 204 186 225 180 37 116 200 232 239 256 327 291 265 202 205 214 223 254 250 251 246 235 235 245 251 252 252 255 256 257 272 293 277 226 220 211 216 216 216 213 204 197 189 180 179 170 168 164 155 142 135 125 128 125 129 126 121 121 117 137 162 223 233 250 258 264 275 294 332 350 347 338 334 328 325 322 317 315 313 312 313 312 308 306 303
216 203 188 235 182 231 222 224 240 298 310 281 280 262 216 190 155 186 255 267 263 247 220 228 241 247 252 251 254 258 278 336 294 282 195 221 223 213 212 216 202 199 194 187 180 173 160 146 137 133 128 126 122 127 131 129 123 121 123 130 165 174 224 231 245 252 277 286 330 349 351 344 339 331 325 321 316 313 313 315 314 312 310 308 308 306
211 216 200 229 223 209 241 249 256 242 248 258 248 272 92 179 175 196 208 270 266 263 179 207 230 243 246 249 250 250 73 294 281 271 264 224 214 209 225 223 181 172 153 128 111 117 124 126 115 110 111 122 120 122 126 126 127 124 136 155 174 195 216 221 238 265 282 315 343 345 346 338 335 327 320 315 310 308 308 307 302 303 310 308 309 308
219 227 225 217 236 225 232 237 238 237 245 244 269 108 212 166 172 115 193 254 260 268 158 202 218 235 240 238 239 108 142 228 254 260 270 161 206 196 192 171 142 144 144 146 144 138 136 135 121 121 118 116 124 130 128 126 124 132 152 164 185 203 210 219 245 267 306 327 342 336 334 329 328 317 307 303 301 305 306 308 307 304 304 301 299 297
207 214 221 234 232 229 236 239 242 216 252 255 270 205 180 128 113 128 235 258 267 132 191 178 214 220 227 227 167 161 176 228 247 257 225 183 184 175 163 153 137 129 123 120 120 130 119 122 120 118 122 128 130 134 133 130 134 147 158 176 181 205 203 205 234 299 318 327 329 326 324 325 316 304 298 297 298 298 298 302 305 307 307 303 299 298
186 224 206 222 218 227 225 246 258 269 258 259 243 150 147 142 128 193 237 254 101 182 172 193 204 214 211 186 155 193 212 211 227 144 102 114 106 106 104 117 134 140 142 137 133 130 123 120 121 129 132 129 134 135 135 136 140 154 167 175 197 198 181 180 258 319 326 328 323 322 320 320 305 298 293 288 292 296 300 304 307 308 307 306 303 299
211 203 242 216 232 225 228 231 239 250 251 253 143 156 157 110 224 231 244 110 258 257 193 190 203 209 196 174 195 205 219 203 104 144 122 140 138 135 131 126 110 93 90 118 131 130 120 117 113 114 115 124 133 134 139 144 147 153 165 193 197 168 162 131 311 344 326 330 324 315 320 315 304 291 289 294 294 303 306 305 303 301 303 302 304 305
182 184 191 198 216 234 237 245 240 256 240 206 130 97 220 203 239 238 248 252 217 202 194 215 208 208 175 201 205 213 190 136 163 156 167 142 146 149 148 149 144 142 142 140 131 138 128 121 125 126 130 135 134 139 147 146 146 158 182 190 166 148 138 120 86 349 332 325 324 332 325 314 301 301 296 296 303 306 309 309 307 305 303 302 305 307
153 209 197 218 183 199 208 207 214 215 233 142 160 193 200 211 232 236 231 243 243 217 200 204 217 200 189 198 203 215 197 154 148 165 152 165 146 144 145 135 99 96 102 140 140 139 120 114 123 125 130 136 142 145 151 150 146 167 184 160 143 145 130 133 57 356 331 332 337 337 324 309 303 297 297 299 307 310 308 311 309 308 305 306 308 315
160 219 200 220 192 199 210 215 222 227 190 177 190 212 210 214 224 237 223 226 238 232 192 187 215 195 192 200 202 191 182 198 189 177 171 175 163 157 161 165 159 152 151 150 154 149 140 128 135 128 129 136 140 145 142 148 151 171 160 147 141 156 151 144 138 108 27 12 357 343 319 310 302 299 297 305 310 315 314 312 314 310 310 308 316 320
199 214 224 243 226 228 248 260 295 234 178 200 215 220 231 228 227 238 234 235 236 229 173 200 208 187 190 186 177 199 202 193 172 184 177 161 159 157 141 144 143 145 136 135 140 147 124 116 123 129 129 137 144 138 136 150 171 164 147 141 143 153 144 149 134 85 43 31 8 336 319 313 309 306 310 312 310 306 305 307 313 313 311 317 320 322
235 218 219 230 213 201 244 211 241 233 219 194 215 228 236 237 228 219 225 231 240 230 199 212 197 188 186 175 191 195 200 182 184 181 166 156 161 163 164 160 160 160 159 157 151 133 131 130 131 139 137 138 147 138 147 155 168 146 131 144 149 146 154 148 114 87 56 35 0 325 314 309 306 318 324 324 314 302 306 311 306 309 311 318 318 305
242 186 230 222 220 216 237 225 231 234 230 212 220 237 240 239 239 233 229 237 239 232 211 209 181 188 167 181 199 195 196 180 175 173 173 173 170 166 167 164 155 120 88 116 140 135 117 131 134 140 140 138 148 149 153 161 156 143 139 142 148 148 152 127 98 87 64 27 355 318 305 300 311 321 319 321 322 314 306 300 300 310 321 325 321 312
204 148 226 160 218 234 246 255 261 257 249 242 237 236 237 238 233 232 229 233 241 231 223 205 191 194 179 203 195 190 184 184 184 176 172 171 170 172 168 157 156 150 145 148 158 162 159 151 135 138 135 136 145 149 156 159 150 147 153 149 153 160 143 112 97 87 67 39 359 314 298 296 302 310 315 317 320 314 298 297 310 321 312 318 306 324
103 207 185 175 230 233 225 232 226 246 244 237 238 235 232 231 233 233 227 223 224 226 215 203 215 215 206 202 186 184 189 187 181 173 174 176 175 173 155 138 131 139 138 130 136 147 143 147 129 135 130 136 144 151 155 152 149 151 149 149 153 158 133 122 110 81 63 38 344 307 302 306 312 308 312 314 317 324 322 318 332 333 330 320 334 339
203 210 194 219 213 234 225 232 228 232 241 239 245 243 232 229 233 226 224 224 222 220 214 207 214 214 217 218 198 189 192 181 181 173 172 172 178 173 168 151 148 149 147 149 145 149 146 141 132 123 130 139 149 152 153 145 148 153 153 151 150 153 138 128 105 86 76 41 330 301 308 313 313 312 312 310 307 311 315 324 326 337 346 344 340 340